Starlink 11081

operational
NORAD ID: 60405 Int'l Des: 2024-141 Owner: SPXS Country: US Constellation: starlink
LEOCIRCULAR

Über Starlink 11081

Beschreibung wird geladen...

Live-Position

3D-Globus wird geladen...

Nächste Überflüge

Höhenverlauf

Altitude vs Time

uPlot chart will show altitude changes over time

Zweizeiliger Elementsatz

1 60405U 24141H 25307.52276141 -.00000095 00000-0 40716-5 0 9990
2 60405 53.1586 348.4623 0001137 83.3814 276.7333 15.69707015 71879
Epoch: 3. Nov. 2025 • Age: 18 hours

Aktueller Status

Höhe 360.9 km
Geschwindigkeit 7.69 km/s
Subsatellitenpunkt -1.74°S, 163.49°W
Startdatum 10. Aug. 2024
Alter 1.2 years
Typ internet

Technische Details

Klassifizierung Payload
Masse 960.00 kg
Trockenmasse 910.00 kg
Gesamtmasse 960.00 kg
Länge 0.30 m
Durchmesser 4.10 m
Spannweite 29.00 m
Form Box + pan
Hersteller SPXS
Bus-Typ Starlink V2MD
Phasenstatus In Orbit
Besitzer/Staat SPXS/US

Große Konstellationen

Loading constellations...